Flag for Canada Weather past 2 weeks in Glace Bay, Nova Scotia, Canada

Now
9 °F

Passing clouds.


Feels Like: -6 °F
Forecast: N/A
Wind: 10 mph from West

Location: Sydney

Current Time: Feb 27, 2015 at 7:33:28 PM

Latest Report: Feb 27, 2015 at 7:00 PM


Visibility: 15 mi

Pressure: 30.23 "Hg

Humidity: 66%

Dew point: 0 °F

Location of Glace BayLocation

Historic Weather in Glace Bay — Graph

°F

Glace Bay temperature yesterday

Maximum temperature yesterday: 25 °F (at 12:00 AM)
Minimum temperature yesterday: 16 °F (at 10:00 PM)
Average temperature yesterday: 20 °F

Past Weeks' High & Low Weather Summary

 TemperatureHumidityPressure
High41 °F (Feb 22, 1:00 PM)100% (Feb 13, 4:00 AM)30.54 "Hg (Feb 13, 4:00 AM)
Low-6 °F (Feb 14, 11:00 PM)32% (Feb 21, 5:00 PM)28.45 "Hg (Feb 16, 3:00 AM)
Average19 °F78%29.74 "Hg
* Reported Feb 12 6:00 PM — Feb 27 6:00 PM, Glace Bay, Weather by CustomWeather, © 2015

Note: Actual official high and low records may vary slightly from our data, if they occured in-between our weather recording intervals... More about our weather records

Advertising

Glace Bay weather history for previous 24 hours

 ConditionsComfort  
Time TempWeatherWind HumidityBarometerVisibility
6:00 PM
Fri, Feb 27
12 °FPassing clouds.12 mph57%30.21 "Hg15 mi
5:00 PM14 °FPassing clouds.12 mph57%30.16 "Hg15 mi
4:00 PM16 °FScattered clouds.17 mph53%30.13 "Hg15 mi
3:00 PM18 °FPassing clouds.14 mph53%30.11 "Hg15 mi
2:00 PM19 °FPartly sunny.18 mph53%30.08 "Hg15 mi
1:00 PM19 °FPassing clouds.13 mph58%30.04 "Hg15 mi
12:00 PM18 °FPassing clouds.12 mph53%30.04 "Hg15 mi
11:00 AM16 °FPassing clouds.10 mph62%30.05 "Hg15 mi
10:00 AM14 °FPassing clouds.12 mph67%30.03 "Hg15 mi
9:00 AM14 °FPartly sunny.12 mph62%30.02 "Hg15 mi
8:00 AM12 °FOvercast.10 mph67%30.02 "Hg15 mi
7:00 AM12 °FMore clouds than sun.6 mph62%29.98 "Hg15 mi
6:00 AM12 °FOvercast.9 mph67%29.96 "Hg15 mi
5:00 AM12 °FOvercast.8 mph62%29.94 "Hg15 mi
4:00 AM12 °FOvercast.9 mph62%29.92 "Hg15 mi
3:50 AM12 °FMostly cloudy.8 mph62%29.92 "Hg15 mi
3:00 AM14 °FLight snow. Overcast.7 mph57%29.91 "Hg10 mi
2:00 AM14 °FLight snow. Mostly cloudy.7 mph62%29.90 "Hg10 mi
1:00 AM14 °FLight snow. Overcast.7 mph67%29.89 "Hg10 mi
12:00 AM14 °FSnow flurries. Overcast.12 mph73%29.89 "Hg10 mi
11:00 PM
Thu, Feb 26
16 °FSnow flurries. Mostly cloudy.10 mph73%29.91 "Hg10 mi
10:00 PM16 °FSnow flurries. Mostly cloudy.12 mph79%29.93 "Hg10 mi
9:49 PM18 °FSnow flurries. Mostly cloudy.10 mph73%29.93 "Hg10 mi
9:00 PM18 °FOvercast.8 mph58%29.94 "Hg15 mi
8:00 PM18 °FMostly cloudy.6 mph62%29.94 "Hg15 mi
7:00 PM19 °FMostly cloudy.5 mph63%29.97 "Hg15 mi
Weather by CustomWeather, © 2015

See weather overviewHow to use our weather pages